217P/LINEAR (2001)

Japanese version
Home page
Updated on March 22, 2009

---------------------------------------------------------------------

* Profile

Designation 217P/2001 MD7
Discovery Date June 21, 2001
Magnitude 17.6 mag
Discoverer Lincoln Laboratory Near-Earth Asteroid Research project

* Orbital Elements

Epoch 2001 Nov. 27.0 TT = JDT 2452240.5
T 2001 Nov. 30.13265 TT                                 MPC
q   1.2542812            (2000.0)            P               Q
n   0.12457730     Peri.  244.84771     +0.95077043     -0.25132660
a   3.9704839      Node   129.16811     +0.29186094     +0.92287437
e   0.6840987      Incl.   13.52379     -0.10417669     +0.29178388
P   7.91

* Finding Charts

* Magnitudes Graph

        m1 = 10.5 + 5 log d + 14.0 log r(t - 30)

---------------------------------------------------------------------

The orbital elements are published on M.P.E.C. 2009-F51.
The charts are made with StellaNavigator Ver.2.0 for Windows (AstroArts / ASCII).
The magnitudes graphs are made with Comet for Windows.

---------------------------------------------------------------------

Copyright(C) Seiichi Yoshida (comet@aerith.net). All rights reserved.